星链-6103 (STARLINK-6103 )

导读

STARLINK-6103是美国SpaceX星链互联网卫星项目中的一员,于2023年3月29日发射升空。星链项目旨在构建全球卫星互联网星座,为全球提供高速低延迟的互联网接入服务,尤其覆盖偏远地区。该卫星加入后进一步扩充了星链星座规模,推动全球太空互联网络建设,是美国低轨卫星星座部署的组成部分。

基本信息
目录编号:
56114
目录名称:
STARLINK-6103
国际标识:
2023-046X
轨道中心:
EARTH
卫星名称:
星链-6103
卫星全名:
星链-6103 (STARLINK-6103 )
卫星状态:
已陨落 最后检测时间 2025-01-22
发射日期:
2023-03-29 UTC
国别 :
美国 (US)
星等 :
--
该卫星已列入 空间交会检测服务 Space Conjunction Data Service (SCDS) ,当前飞行风险评估等级: 无高风险
轨道信息
数据来源 国际轨道数据
星历时间: 2025-01-22T14:51:45+0800
轨道信息已过期598天
半长轴: 6526.156km
偏心率: 0.0006054
轨道倾角: 42.988°
近地点辐角 328.971°
升交点赤经 203.845°
平近点角 163.086°
近地点: 144.07km
远地点: 151.972km
周期: 87.447分钟
每日圈数: 16.467083
详细信息
固有亮度:
5
最大亮度:
2.5
卫星平台:
Starlink v1.5
覆盖范围:
全球
运营商:
太空探索技术公司
运营商所在国:
美国
制造商(研发单位):
太空探索技术公司
制造商所在国:
美国
使用方式:
暂无
卫星简介
星链(Starlink)计划是由太空探索技术公司(SpaceX)提出的一个巨型低轨卫星互联网星座项目,计划在2019年至2024年间在太空搭建由约1.2万颗卫星组成的“星链”网络,其中1584颗将部署在地球上空550千米处的近地轨道,并从2020年开始工作。该卫星仍在工作。
与全量物体交会距离演化趋势
与全量物体交会风险概率演化趋势